DL9GKJ-13 Weather Reports


Display with metric or nautical units.
time (UTC)temp
F
wind
direction
speed
MPH
gust
MPH
rain 1hr
in
rain 24hr
in
rain mn
in
humidity
%
barometer
mb
20260902090005 66 252 4.0 14.0 0.00 0.11 0.00 81 988.1
20260902085606 66 245 9.0 14.0 0.00 0.11 0.00 81 988.1
20260902085205 65 247 1.0 11.0 0.00 0.11 0.00 81 988.1
20260902084805 65 258 3.0 14.0 0.00 0.11 0.00 83 988.0
20260902084405 64 263 3.0 14.0 0.00 0.11 0.00 84 988.0
20260902084005 64 254 3.0 12.0 0.00 0.11 0.00 86 988.1
20260902083607 64 254 7.0 14.0 0.00 0.11 0.00 85 987.9
20260902083205 64 264 4.0 14.0 0.00 0.11 0.00 85 988.1
20260902082805 63 257 6.0 14.0 0.00 0.11 0.00 87 988.0
20260902082405 63 242 1.0 10.0 0.00 0.11 0.00 88 988.1
20260902082005 63 242 3.0 10.0 0.00 0.11 0.00 88 988.0
20260902081605 62 258 1.0 10.0 0.00 0.11 0.00 89 988.0
20260902081205 62 262 3.0 10.0 0.00 0.11 0.00 89 988.0
20260902080806 62 266 4.0 10.0 0.00 0.11 0.00 90 988.0
20260902080405 62 249 4.0 10.0 0.00 0.11 0.00 89 988.1
20260902080005 62 247 3.0 10.0 0.00 0.11 0.00 90 988.1
20260902075605 62 259 3.0 10.0 0.00 0.11 0.00 90 988.0
20260902075205 62 242 3.0 11.0 0.00 0.11 0.00 90 988.0
20260902074805 62 239 3.0 11.0 0.00 0.11 0.00 91 988.0
20260902074405 61 241 4.0 11.0 0.00 0.11 0.00 91 988.0
20260902074005 61 241 1.0 11.0 0.00 0.11 0.00 91 988.0
20260902073605 61 243 4.0 11.0 0.00 0.11 0.00 92 987.9
20260902073205 61 243 1.0 10.0 0.00 0.11 0.00 91 987.9
20260902072805 61 246 3.0 7.0 0.00 0.11 0.00 92 988.0
20260902072405 60 255 3.0 7.0 0.00 0.11 0.00 93 988.0
20260902072005 60 254 1.0 7.0 0.00 0.11 0.00 93 987.9
20260902071605 60 251 1.0 8.0 0.00 0.11 0.00 94 988.0
20260902071205 60 261 3.0 10.0 0.00 0.11 0.00 95 987.9
20260902070405 60 262 1.0 10.0 0.00 0.11 0.00 96 987.8
20260902070007 59 254 3.0 10.0 0.00 0.11 0.00 96 987.9
20260902065605 59 256 4.0 10.0 0.00 0.11 0.00 96 987.8
20260902065205 59 248 3.0 10.0 0.00 0.11 0.00 96 987.9
20260902064805 59 264 1.0 10.0 0.00 0.11 0.00 97 987.9
20260902064405 59 258 1.0 7.0 0.00 0.11 0.00 98 987.9
20260902064005 58 252 3.0 7.0 0.00 0.11 0.00 98 987.9
20260902063606 58 239 1.0 6.0 0.00 0.11 0.00 98 987.9
20260902063205 58 231 1.0 4.0 0.00 0.11 0.00 99 987.8
20260902062806 58 234 1.0 6.0 0.00 0.11 0.00 99 987.9
20260902062405 57 237 1.0 6.0 0.00 0.11 0.00 99 987.8
20260902062005 57 243 1.0 6.0 0.00 0.11 0.00 99 987.8
20260902061605 57 248 1.0 4.0 0.00 0.11 0.00 99 987.8
20260902060806 57 244 0.0 4.0 0.00 0.11 0.00 99 987.7
20260902060405 57 256 0.0 6.0 0.00 0.11 0.00 99 987.8
20260902060005 57 261 1.0 6.0 0.00 0.11 0.00 99 987.8
20260902055605 57 251 0.0 7.0 0.00 0.11 0.00 99 987.9
20260902055205 57 239 1.0 7.0 0.00 0.11 0.00 99 987.8
20260902054805 56 227 1.0 4.0 0.00 0.11 0.00 99 987.7
20260902054405 56 225 0.0 4.0 0.00 0.11 0.00 99 987.7
20260902054005 56 229 0.0 3.0 0.00 0.11 0.00 99 987.8
20260902053606 56 229 1.0 4.0 0.00 0.11 0.00 99 987.7
20260902053205 56 229 0.0 6.0 0.00 0.11 0.00 99 987.6
20260902052805 56 233 1.0 6.0 0.00 0.11 0.00 99 987.6
20260902052405 56 233 0.0 6.0 0.00 0.11 0.00 99 987.6
20260902052005 55 236 1.0 3.0 0.00 0.11 0.00 99 987.7
20260902050805 55 251 0.0 3.0 0.00 0.11 0.00 99 987.7
20260902050405 55 251 0.0 3.0 0.00 0.11 0.00 99 987.6
20260902050008 50 258 0.0 3.0 0.00 0.11 0.00 99 987.6
20260902045605 36 262 0.0 3.0 0.00 0.11 0.00 99 987.6
20260902045205 12 256 0.0 3.0 0.00 0.11 0.00 99 987.5
20260902044405 -7 267 0.0 3.0 0.00 0.11 0.00 99 987.5
20260902044005 -16 270 0.0 3.0 0.00 0.11 0.00 99 987.6
20260902043605 -21 270 0.0 3.0 0.00 0.11 0.00 99 987.6
20260902043205 -26 270 0.0 3.0 0.00 0.11 0.00 99 987.5
20260902042805 -40 0 0.0 0.0 0.00 0.11 0.00 99 987.5
20260902042405 -40 0 0.0 0.0 0.00 0.11 0.00 99 987.5
20260902042006 -40 0 0.0 0.0 0.00 0.11 0.00 99 987.5
20260902041605 -40 0 0.0 0.0 0.00 0.11 0.00 99 987.4
20260902041205 -40 0 0.0 0.0 0.00 0.11 0.00 99 987.4
20260902040405 -40 270 0.0 3.0 0.00 0.11 0.00 99 987.5
20260902040005 -40 270 0.0 3.0 0.00 0.11 0.00 99 987.5
20260902035605 -40 270 0.0 3.0 0.00 0.11 0.00 99 987.6
20260902034005 -40 0 0.0 0.0 0.00 0.11 0.00 99 987.7
20260902033605 -40 270 0.0 1.0 0.00 0.11 0.00 99 987.8
20260902033205 -40 270 0.0 1.0 0.00 0.11 0.00 99 987.9
20260902032805 -40 270 0.0 1.0 0.00 0.11 0.00 99 987.7
20260902032005 -40 270 0.0 1.0 0.00 0.11 0.00 99 987.7
20260902031605 -40 270 0.0 3.0 0.00 0.11 0.00 99 987.7
20260902031205 -40 270 0.0 3.0 0.00 0.11 0.00 99 987.7
20260902030806 -40 270 0.0 3.0 0.00 0.11 0.00 99 987.7
20260902030005 -40 270 0.0 3.0 0.00 0.11 0.00 99 987.8
20260902024405 -40 270 0.0 1.0 0.00 0.11 0.00 99 987.6
20260902024005 -40 0 0.0 0.0 0.00 0.11 0.00 99 987.7
20260902022805 -40 0 0.0 0.0 0.00 0.11 0.00 99 987.7
20260902022405 -40 270 0.0 1.0 0.00 0.11 0.00 99 987.6
20260902022005 -40 270 0.0 1.0 0.00 0.11 0.00 99 987.6
20260902021605 -40 0 0.0 0.0 0.00 0.11 0.00 99 987.7
20260902021205 -40 0 0.0 0.0 0.00 0.11 0.00 99 987.6
20260902020805 -40 0 0.0 0.0 0.00 0.11 0.00 99 987.5
20260902020405 -40 270 0.0 1.0 0.00 0.11 0.00 99 987.6
20260902020005 -40 270 0.0 3.0 0.00 0.11 0.00 99 987.5
20260902015605 -40 270 0.0 3.0 0.00 0.11 0.00 99 987.7
20260902015205 -40 270 0.0 3.0 0.00 0.11 0.00 99 987.6
20260902014805 -40 0 0.0 0.0 0.00 0.11 0.00 99 987.6
20260902014405 -40 0 0.0 0.0 0.00 0.11 0.00 99 987.5
20260902014005 -35 0 0.0 0.0 0.00 0.11 0.00 99 987.6
20260902013605 -30 0 0.0 0.0 0.00 0.11 0.00 99 987.5
20260902013205 -21 270 0.0 1.0 0.00 0.11 0.00 99 987.4
20260902012405 -16 270 0.0 3.0 0.00 0.11 0.00 99 987.5
20260902011606 -11 264 0.0 3.0 0.00 0.11 0.00 99 987.5
20260902010805 13 264 0.0 6.0 0.00 0.11 0.00 99 987.5
20260902010405 13 270 0.0 6.0 0.00 0.11 0.00 99 987.4
20260902010005 23 270 1.0 4.0 0.00 0.11 0.00 99 987.6
20260902005605 24 256 0.0 4.0 0.00 0.11 0.00 99 987.5
20260902005205 14 246 0.0 4.0 0.00 0.11 0.00 99 987.6
20260902004805 24 247 0.0 4.0 0.00 0.11 0.00 99 987.6
20260902004405 14 262 0.0 4.0 0.00 0.11 0.00 99 987.7
20260902004006 24 260 0.0 7.0 0.00 0.11 0.00 99 987.6
20260902003605 34 263 1.0 7.0 0.00 0.11 0.00 99 987.5
20260902003205 29 263 1.0 7.0 0.00 0.11 0.00 99 987.7
20260902002805 44 263 0.0 7.0 0.00 0.11 0.00 99 987.6
20260902002405 44 261 1.0 7.0 0.00 0.11 0.00 99 987.6
20260902002005 49 267 1.0 6.0 0.00 0.11 0.00 99 987.6
20260902001606 59 270 3.0 6.0 0.00 0.11 0.00 99 987.7
20260902001204 54 270 0.0 4.0 0.00 0.11 0.00 99 987.6
20260902000805 50 266 1.0 6.0 0.00 0.11 0.00 99 987.7
20260902000406 50 262 1.0 6.0 0.00 0.11 0.00 99 987.6
20260902000006 50 254 1.0 6.0 0.00 0.11 0.00 99 987.7
20260901235605 45 265 0.0 4.0 0.00 0.11 0.00 99 987.7
20260901235205 50 255 0.0 7.0 0.00 0.11 0.00 99 987.6
20260901234405 54 260 0.0 7.0 0.00 0.11 0.00 99 987.6
20260901234005 54 270 0.0 3.0 0.00 0.11 0.00 99 987.7
20260901233605 44 270 0.0 6.0 0.00 0.11 0.00 99 987.5
20260901232805 44 270 0.0 6.0 0.00 0.11 0.00 99 987.6
20260901232405 49 263 0.0 6.0 0.00 0.11 0.00 99 987.5
20260901232006 59 252 0.0 7.0 0.00 0.11 0.00 99 987.5
20260901231606 54 256 0.0 7.0 0.00 0.11 0.00 99 987.4
20260901231205 54 266 1.0 7.0 0.00 0.11 0.00 99 987.5
20260901230805 54 268 0.0 6.0 0.00 0.11 0.00 99 987.4
20260901230405 54 269 3.0 6.0 0.00 0.11 0.00 99 987.5
20260901230005 54 270 1.0 6.0 0.00 0.11 0.00 99 987.4
20260901225606 54 270 0.0 6.0 0.00 0.11 0.00 99 987.4
20260901225205 54 270 0.0 6.0 0.00 0.11 0.00 99 987.4
20260901224805 54 270 1.0 7.0 0.00 0.11 0.00 99 987.3
20260901224405 60 270 1.0 7.0 0.00 0.11 0.00 99 987.4
20260901224005 60 270 0.0 11.0 0.00 0.11 0.00 98 987.4
20260901223605 60 266 3.0 11.0 0.00 0.11 0.00 98 987.4
20260901223205 60 262 3.0 7.0 0.00 0.11 0.00 98 987.4
20260901222805 59 268 1.0 7.0 0.00 0.11 0.00 98 987.4
20260901222405 59 260 0.0 7.0 0.00 0.11 0.00 98 987.3
20260901222005 54 256 1.0 7.0 0.00 0.11 0.00 98 987.4
20260901221605 54 251 1.0 6.0 0.00 0.11 0.00 98 987.4
20260901221205 54 250 1.0 6.0 0.00 0.11 0.00 98 987.3
20260901220405 54 247 0.0 8.0 0.00 0.11 0.00 97 987.3
20260901220007 50 263 0.0 8.0 0.00 0.11 0.00 97 987.2
20260901215205 55 266 1.0 10.0 0.00 0.11 0.11 96 987.4
20260901214805 55 269 1.0 8.0 0.00 0.11 0.11 99 987.3
20260901214406 60 262 3.0 8.0 0.00 0.11 0.11 96 987.3
20260901214005 60 257 3.0 8.0 0.00 0.11 0.11 95 987.3
20260901213605 61 255 3.0 10.0 0.00 0.11 0.11 95 987.2
20260901213205 61 259 1.0 11.0 0.00 0.11 0.11 95 987.3
20260901212805 61 259 3.0 11.0 0.00 0.11 0.11 94 987.2
20260901212405 61 261 3.0 11.0 0.00 0.11 0.11 94 987.0
20260901212005 61 270 3.0 8.0 0.00 0.11 0.11 94 987.1
20260901211605 61 263 1.0 8.0 0.00 0.11 0.11 94 987.1
20260901211205 61 259 3.0 8.0 0.00 0.11 0.11 94 987.2
20260901210805 61 256 0.0 7.0 0.00 0.11 0.11 93 987.2
20260901210405 61 255 3.0 10.0 0.00 0.11 0.11 93 987.0
20260901210005 61 246 1.0 10.0 0.00 0.11 0.11 93 987.1
20260901205605 61 251 4.0 10.0 0.00 0.11 0.11 93 987.0
20260901205205 61 255 3.0 10.0 0.00 0.11 0.11 92 987.1
20260901204805 61 259 3.0 10.0 0.00 0.11 0.11 92 987.2
20260901204405 61 263 1.0 10.0 0.00 0.11 0.11 92 987.0
20260901204005 61 267 3.0 10.0 0.00 0.11 0.11 91 987.1
20260901203605 61 263 1.0 8.0 0.00 0.11 0.11 91 987.0
20260901203206 61 260 3.0 8.0 0.00 0.11 0.11 91 987.0
20260901202805 60 258 1.0 8.0 0.00 0.11 0.11 91 986.9
20260901202005 50 267 1.0 4.0 0.00 0.11 0.11 91 987.0
20260901200405 60 270 1.0 7.0 0.00 0.11 0.11 90 987.0
20260901195605 55 270 1.0 7.0 0.00 0.11 0.11 90 986.9
20260901195205 55 267 1.0 7.0 0.00 0.11 0.11 90 987.0
20260901194805 55 267 0.0 10.0 0.00 0.11 0.11 89 987.1
20260901194405 60 262 0.0 10.0 0.00 0.11 0.11 88 986.9
20260901194005 61 263 1.0 10.0 0.00 0.11 0.11 88 986.9
20260901193605 61 268 0.0 6.0 0.00 0.11 0.11 88 987.0
20260901193205 61 268 0.0 7.0 0.00 0.11 0.11 87 986.9
20260901192806 61 270 0.0 7.0 0.00 0.11 0.11 87 986.8
20260901192405 61 270 3.0 7.0 0.00 0.11 0.11 87 986.8
20260901192004 62 265 0.0 7.0 0.00 0.11 0.11 87 987.0
20260901191205 62 262 3.0 7.0 0.00 0.11 0.11 87 986.9
20260901190805 62 257 0.0 11.0 0.00 0.11 0.11 86 986.9
20260901190405 62 256 0.0 11.0 0.00 0.11 0.11 85 987.0
20260901190005 62 254 6.0 11.0 0.00 0.11 0.11 85 986.8
20260901185605 62 262 3.0 10.0 0.00 0.11 0.11 84 986.8
20260901185205 62 262 4.0 10.0 0.00 0.11 0.11 85 986.7
20260901184805 62 265 0.0 7.0 0.00 0.11 0.11 86 986.7
20260901184405 62 261 1.0 7.0 0.00 0.11 0.11 86 986.7
20260901184005 62 259 1.0 10.0 0.00 0.11 0.11 86 986.8
20260901183605 62 264 3.0 10.0 0.00 0.11 0.11 87 986.6
20260901183205 62 260 0.0 10.0 0.00 0.11 0.11 90 986.5
20260901182805 62 267 1.0 7.0 0.00 0.11 0.11 91 986.5
20260901182405 62 270 0.0 4.0 0.00 0.11 0.11 93 986.6
20260901182005 63 266 0.0 7.0 0.00 0.11 0.11 93 986.5
20260901181605 63 259 0.0 7.0 0.00 0.11 0.11 93 986.6
20260901181205 63 248 1.0 14.0 0.00 0.11 0.11 93 986.5
20260901180804 63 253 0.0 14.0 0.00 0.11 0.11 92 986.4
20260901180405 64 266 3.0 14.0 0.00 0.11 0.11 92 986.4
20260901180005 64 257 1.0 6.0 0.00 0.11 0.11 91 986.5
20260901174805 64 264 3.0 11.0 0.00 0.11 0.11 90 986.2
20260901174404 64 256 3.0 11.0 0.00 0.12 0.11 90 986.3
20260901174007 64 247 3.0 10.0 0.00 0.12 0.11 89 986.3
20260901173206 64 256 1.0 14.0 0.00 0.12 0.11 89 986.2
20260901172805 64 259 4.0 14.0 0.00 0.12 0.11 88 986.5
20260901172005 64 259 3.0 15.0 0.00 0.12 0.11 89 986.3
20260901171605 63 257 4.0 15.0 0.00 0.12 0.11 89 986.2
20260901171204 63 257 3.0 14.0 0.00 0.12 0.11 88 986.3
20260901170805 63 266 6.0 12.0 0.00 0.12 0.11 88 986.2
20260901170005 64 249 3.0 17.0 0.00 0.12 0.11 87 986.2
20260901165605 64 251 6.0 17.0 0.00 0.12 0.11 87 986.0
20260901165205 64 255 6.0 12.0 0.00 0.12 0.11 90 986.2
20260901164805 64 261 3.0 12.0 0.00 0.12 0.11 92 986.1
20260901164404 65 259 3.0 10.0 0.00 0.12 0.11 92 986.0
20260901164005 65 252 4.0 10.0 0.00 0.12 0.11 91 986.2
20260901163605 65 259 3.0 10.0 0.00 0.12 0.11 92 985.8
20260901163205 65 257 1.0 8.0 0.00 0.12 0.11 91 986.0
20260901162805 65 252 1.0 8.0 0.00 0.12 0.11 90 985.9
20260901162404 64 248 1.0 7.0 0.00 0.12 0.11 90 985.9
20260901162005 64 246 0.0 7.0 0.00 0.12 0.11 91 986.0
20260901161605 64 250 3.0 7.0 0.00 0.12 0.11 92 985.8
20260901160805 64 249 3.0 14.0 0.00 0.12 0.11 92 985.9
20260901160405 65 243 1.0 17.0 0.00 0.12 0.11 92 985.9
20260901160005 65 244 1.0 17.0 0.00 0.12 0.11 93 985.8
20260901155605 65 262 4.0 17.0 0.00 0.12 0.11 91 985.9
20260901154804 66 269 4.0 15.0 0.00 0.12 0.11 89 985.8
20260901154405 66 258 7.0 12.0 0.00 0.12 0.11 86 985.8
20260901154005 66 248 6.0 11.0 0.00 0.12 0.11 86 985.8
20260901153605 67 253 1.0 11.0 0.00 0.12 0.11 86 985.7
20260901153205 67 257 3.0 11.0 0.00 0.12 0.11 85 985.7
20260901152805 67 260 1.0 11.0 0.00 0.12 0.11 87 985.6
20260901152405 67 258 1.0 11.0 0.00 0.12 0.11 87 985.5
20260901151605 67 252 6.0 12.0 0.00 0.12 0.11 85 985.6
20260901151205 68 255 1.0 15.0 0.00 0.12 0.11 85 985.6
20260901150805 67 256 3.0 15.0 0.00 0.12 0.11 84 985.5
20260901150405 68 253 3.0 15.0 0.00 0.12 0.11 84 985.5
20260901150006 68 250 6.0 15.0 0.00 0.12 0.11 83 985.4
20260901145605 68 257 7.0 14.0 0.00 0.13 0.11 83 985.5
20260901145205 68 253 1.0 15.0 0.00 0.13 0.11 85 985.3
20260901144805 68 258 0.0 15.0 0.00 0.13 0.11 85 985.3
20260901144405 68 269 9.0 15.0 0.00 0.13 0.11 83 985.1
20260901144005 68 265 4.0 15.0 0.00 0.13 0.11 85 985.1
20260901143205 67 256 6.0 15.0 0.00 0.13 0.11 85 985.0
20260901142805 67 242 3.0 15.0 0.00 0.13 0.11 87 985.2
20260901142406 67 239 4.0 15.0 0.00 0.13 0.11 88 985.3
20260901141605 67 254 6.0 15.0 0.00 0.13 0.11 86 985.1
20260901140805 66 248 4.0 17.0 0.00 0.13 0.11 88 985.3
20260901140405 66 251 6.0 17.0 0.00 0.13 0.11 88 985.1
20260901135204 66 247 4.0 17.0 0.00 0.13 0.11 91 985.3
20260901134805 65 239 9.0 17.0 0.00 0.13 0.11 89 985.3
20260901134005 65 242 4.0 15.0 0.00 0.13 0.11 91 985.3
20260901133605 65 247 4.0 15.0 0.00 0.13 0.11 90 985.3
20260901132804 66 245 4.0 19.0 0.00 0.13 0.11 89 985.2
20260901132405 66 251 9.0 19.0 0.00 0.13 0.11 88 985.2
20260901132005 65 251 7.0 15.0 0.01 0.13 0.11 89 985.3
20260901131606 65 250 7.0 15.0 0.01 0.13 0.11 92 985.2
20260901131205 64 258 6.0 10.0 0.01 0.13 0.11 94 985.2
20260901130805 64 270 0.0 6.0 0.01 0.13 0.11 96 985.1
20260901130005 63 270 1.0 8.0 0.11 0.13 0.11 98 984.9
20260901125605 63 265 3.0 8.0 0.11 0.13 0.11 99 985.1
20260901125205 63 264 3.0 8.0 0.11 0.13 0.11 99 984.9
20260901124805 63 260 1.0 14.0 0.11 0.13 0.11 99 985.1
20260901124405 63 253 1.0 14.0 0.11 0.13 0.11 99 985.1
20260901124005 64 257 4.0 14.0 0.11 0.13 0.11 99 985.1
20260901123605 64 260 3.0 11.0 0.11 0.13 0.11 99 985.1
20260901123205 63 259 4.0 11.0 0.11 0.13 0.11 99 985.2
20260901122805 62 266 3.0 8.0 0.11 0.13 0.11 99 985.1
20260901122404 62 266 1.0 6.0 0.11 0.13 0.11 99 985.0
20260901122005 62 254 3.0 6.0 0.09 0.12 0.09 99 985.0
20260901121606 64 238 0.0 14.0 0.09 0.12 0.09 99 984.9
20260901121204 66 251 0.0 19.0 0.09 0.12 0.09 98 984.9
20260901120805 68 256 3.0 19.0 0.08 0.11 0.08 95 985.0
20260901120405 69 262 9.0 15.0 0.01 0.04 0.01 87 985.3
20260901120005 69 261 1.0 12.0 0.00 0.02 0.00 80 984.7
20260901115604 69 260 6.0 12.0 0.00 0.02 0.00 79 984.8
20260901114805 69 255 1.0 11.0 0.00 0.02 0.00 83 984.7
20260901114405 69 261 1.0 10.0 0.00 0.02 0.00 86 984.7
20260901113605 69 265 3.0 15.0 0.00 0.02 0.00 86 984.7
20260901112805 70 265 1.0 14.0 0.00 0.02 0.00 82 984.6
20260901112405 70 259 0.0 12.0 0.00 0.02 0.00 80 984.6
20260901111605 70 257 6.0 12.0 0.00 0.02 0.00 78 984.4
20260901110804 69 251 1.0 11.0 0.00 0.02 0.00 81 984.5
20260901110405 68 252 3.0 12.0 0.00 0.02 0.00 82 984.6
20260901110005 68 242 4.0 15.0 0.00 0.02 0.00 83 984.5
20260901105205 68 238 3.0 17.0 0.00 0.02 0.00 85 984.5
20260901104805 68 254 3.0 17.0 0.00 0.02 0.00 84 984.5
20260901104005 69 255 4.0 19.0 0.00 0.02 0.00 86 984.4
20260901103605 69 255 9.0 19.0 0.00 0.02 0.00 82 984.4
20260901103205 69 249 11.0 18.0 0.00 0.02 0.00 79 984.3
20260901102804 69 240 9.0 18.0 0.00 0.02 0.00 80 984.2
20260901102405 69 248 10.0 17.0 0.00 0.02 0.00 80 984.4
20260901102005 69 259 4.0 12.0 0.00 0.02 0.00 80 984.2
20260901101605 69 261 6.0 17.0 0.00 0.02 0.00 82 984.2
20260901101205 69 250 3.0 17.0 0.00 0.02 0.00 81 984.2
20260901100804 68 262 3.0 17.0 0.00 0.02 0.00 81 984.3
20260901100406 68 261 4.0 17.0 0.00 0.02 0.00 82 984.2
20260901100005 68 257 6.0 17.0 0.00 0.02 0.00 82 984.2
20260901095605 68 259 4.0 15.0 0.00 0.02 0.00 83 984.2
20260901095204 69 250 3.0 17.0 0.00 0.02 0.00 83 984.2
20260901094805 69 254 4.0 18.0 0.00 0.02 0.00 82 984.1
20260901094405 69 255 3.0 18.0 0.00 0.02 0.00 82 983.9
20260901094007 69 253 7.0 18.0 0.00 0.02 0.00 80 984.0
20260901093605 69 247 3.0 18.0 0.00 0.02 0.00 82 983.9
20260901093205 69 248 10.0 18.0 0.00 0.02 0.00 81 983.9
20260901092805 68 242 7.0 15.0 0.00 0.02 0.00 82 983.9
20260901092405 68 251 4.0 15.0 0.00 0.02 0.00 83 984.0
20260901092005 68 260 7.0 18.0 0.00 0.02 0.00 83 983.9
20260901091204 67 259 9.0 18.0 0.00 0.02 0.00 84 984.0